This is the latest recevied weather packets stored in our database for station/object KD4MBW. If no packets are shown the sender has not sent any weather packets the latest 10 day(s).
| Time | Temp. | Humidity | Pressure | Rain* | Wind** | Luminosity | Snow |
|---|---|---|---|---|---|---|---|
| 1788106268 | 29.44° C | 84% | 1019.7 hPa | 0 mm | - | 450 W/m² | - |
| 1788105964 | 29.44° C | 84% | 1019.5 hPa | 0 mm | - | 176 W/m² | - |
| 1788105658 | 30° C | 82% | 1019.6 hPa | 0 mm | - | 417 W/m² | - |
| 1788105355 | 30° C | 83% | 1019.6 hPa | 0 mm | - | 490 W/m² | - |
| 1788105050 | 30° C | 81% | 1019.6 hPa | 0 mm | - | 700 W/m² | - |
| 1788104745 | 30° C | 81% | 1019.5 hPa | 0 mm | - | 703 W/m² | - |
| 1788104442 | 30° C | 82% | 1019.4 hPa | 0 mm | - | 637 W/m² | - |
| 1788104138 | 29.44° C | 85% | 1019.6 hPa | 0 mm | - | 617 W/m² | - |
| 1788103837 | 29.44° C | 83% | 1019.3 hPa | 0 mm | - | 678 W/m² | - |
| 1788103531 | 29.44° C | 85% | 1019.5 hPa | 0 mm | - | 655 W/m² | - |
| 1788103230 | 29.44° C | 84% | 1019.3 hPa | 0 mm | - | 639 W/m² | - |
| 1788102925 | 29.44° C | 85% | 1019.2 hPa | 0 mm | - | 626 W/m² | - |
| 1788102620 | 28.89° C | 87% | 1019.3 hPa | 0 mm | - | 627 W/m² | - |
| 1788102319 | 28.89° C | 86% | 1019.3 hPa | 0 mm | - | 537 W/m² | - |
| 1788102014 | 28.89° C | 86% | 1019.3 hPa | 0 mm | - | 581 W/m² | - |
| 1788101708 | 28.89° C | 86% | 1019.2 hPa | 0 mm | - | 572 W/m² | - |
| 1788101403 | 28.89° C | 86% | 1019.3 hPa | 0 mm | - | 540 W/m² | - |
| 1788101099 | 28.89° C | 87% | 1019.1 hPa | 0 mm | - | 526 W/m² | - |
| 1788100794 | 28.89° C | 87% | 1019.2 hPa | 0 mm | - | 513 W/m² | - |
| 1788100490 | 28.33° C | 87% | 1019.3 hPa | 0 mm | - | 498 W/m² | - |
| 1788100188 | 28.33° C | 88% | 1019.3 hPa | 0 mm | - | 468 W/m² | - |
| 1788099884 | 28.33° C | 87% | 1019.3 hPa | 0 mm | - | 462 W/m² | - |
| 1788099578 | 27.78° C | 87% | 1019.5 hPa | 0 mm | - | 455 W/m² | - |
| 1788099274 | 27.78° C | 88% | 1019.2 hPa | 0 mm | - | 441 W/m² | - |
| 1788098969 | 28.33° C | 89% | 1019.3 hPa | 0 mm | - | 430 W/m² | - |
* Rain latest hour (hover to see other rain measurements)
** Current wind speed in m/s (hover to see current wind gust speed)